Current Version              Previous Version:    01  02  03  04  05  06  07  08  09  10  11  12  13  14  15  16  17  18  19  20  21  22  23  24  25  26  27  28  29  30  
   31  32  33  34  35  36  37  38  39  40  41  42  43  44  45  46  47  48  49  50  51  52  53  54  55  56  57  58  59  60  

[Printable]
561
ASUS44 KEWX 201602
RWRTX
SOUTH TEXAS REGIONAL WEATHER ROUNDUP
NATIONAL WEATHER SERVICE AUSTIN/SAN ANTONIO TX
1000 AM CST SAT DEC 20 2014

NOTE: "FAIR" INDICATED FEW OR NO CLOUDS BELOW 12,000 FEET WITH NO
SIGNIFICANT WEATHER AND/OR OBSTRUCTIONS TO VISIBILITY.

* - THESE STATIONS ARE NOT NWS OR FAA STATIONS...AND ARE NOT SUBJECT
    TO NWS AND FAA QUALITY CONTROL.

TXZ171-172-183>190-201700-
TEXAS HILL COUNTRY AND EDWARDS PLATEAU

CITY           SKY/WX    TMP DP  RH WIND       PRES   REMARKS
JUNCTION       CLOUDY    47  43  86 E7        30.22S WCI  44
*LLANO         CLOUDY    48  43  81 CALM      30.28S
BURNET         CLOUDY    47  40  76 NE5       30.27R WCI  45
*HORSESHOE BAY CLOUDY    48  41  76 CALM      30.26R
*KERRVILLE     CLOUDY    47  42  83 CALM      30.23R
*FREDERICKSBRG CLOUDY    46  40  78 CALM      30.23R
*ROCKSPRINGS   CLOUDY    46  43  87 NE5       30.22R WCI  44
*BOERNE STAGE  CLOUDY    46  41  81 NE5       30.24R WCI  44
*CASTROVILLE   CLOUDY    49  42  75 NE9       30.26R WCI  45
HONDO          CLOUDY    49  43  80 NE7       30.26R WCI  46
*UVALDE        CLOUDY    42  39  90 E8        30.24S WCI  36
DEL RIO        CLOUDY    51  45  79 SE12      30.21R
LAUGHLIN AFB   CLOUDY    50  45  83 S8        30.22R WCI  47
CARRIZO SPRGS  CLOUDY    50  45  81 E6        30.23R WCI  48
$$

TXZ173-191>194-202-209-217>225-228-201700-
CENTRAL AND SOUTH CENTRAL TEXAS

CITY           SKY/WX    TMP DP  RH WIND       PRES   REMARKS
GEORGETOWN     CLOUDY    50  45  81 N5        30.24R WCI  48
AUSTIN/BERGSTM CLOUDY    50  46  86 N8        30.24S WCI  47
AUSTIN/MABRY   CLOUDY    50  45  83 CALM      30.26R
*AUSTIN/EXEC   CLOUDY    48  46  93 N6        30.25R WCI  46
*LAGO VISTA    CLOUDY    48  44  87 CALM      30.25R
SAN MARCOS     CLOUDY    48  45  87 N7        30.25R FOG     WCI  45
NEW BRAUNFELS  CLOUDY    51  44  77 N7        30.24R
RANDOLPH AFB   CLOUDY    50  42  75 NE8       30.24R WCI  47
PT SAN ANTONIO CLOUDY    50  43  76 NE8       30.23R WCI  47
SAN ANTONIO    CLOUDY    51  43  74 N8        30.25R
STINSON FIELD  CLOUDY    52  43  71 N7        30.23R
*PLEASANTON    CLOUDY    51  44  75 NE9       30.24F
*LA GRANGE     PTSUNNY   52  49  89 N7        30.21R
*GIDDINGS      CLOUDY    49  47  93 N5        30.27R WCI  47
*GONZALES      NOT AVBL
$$

TXZ163>164-176>182-195>201-210>213-226-227-235-201700-
SOUTHEAST TEXAS

CITY           SKY/WX    TMP DP  RH WIND       PRES   REMARKS
COLLEGE STN    CLOUDY    50  47  89 N6        30.24R WCI  48
*BRYAN         CLOUDY    49  47  94 NE3       30.25R FOG
*CALDWELL      CLOUDY    48  48 100 N8        30.27R WCI  45
*CROCKETT      CLOUDY    50  48  93 NE7       30.27R WCI  47
*BRENHAM       CLOUDY    52  49  90 N6        30.25R
HUNTSVILLE     CLOUDY    49  47  93 NE5       30.23R WCI  47
CONROE         CLOUDY    50  48  93 NE7       30.23R WCI  47
HOUSTON BUSH   CLOUDY    53  49  86 N7        30.22R
HOUSTON HOBBY  CLOUDY    53  50  89 N5        30.21R
*HOUSTON SW AP CLOUDY    44  42  95 N6        30.22R WCI  40
PEARLAND       CLOUDY    53  50  89 NE8       30.22R
HOUSTON HOOKS  CLOUDY    52  48  86 N3        30.23R
ELLINGTON FLD  CLOUDY    52  50  93 N6        30.22S
SUGAR LAND     CLOUDY    52  49  89 N9        30.22R
*HOUSTON EXEC  CLOUDY    50  48  93 N7        30.24R WCI  47
*CLEVELAND MUN CLOUDY    50  49  95 NE3       30.23R FOG
*WHARTON       CLOUDY    51  49  91 N10       30.23R
*COLUMBUS      CLOUDY    51  48  89 N10       30.22R
$$

TXZ214>216-236>238-201700-
THE UPPER TEXAS COAST

CITY           SKY/WX    TMP DP  RH WIND       PRES   REMARKS
*ORANGE        CLOUDY    50  49  96 N7        30.23R WCI  47
PORT ARTHUR    CLOUDY    52  49  89 N8        30.20R
GALVESTON      CLOUDY    53  51  93 N14       30.21R
ANGLETON       CLOUDY    51  50  96 N16       30.20S
*BAY CITY        N/A     54  53  96 N9        30.19S
PALACIOS       CLOUDY    53  50  89 N13       30.21R
$$

TXZ229>234-239>247-201700-
TEXAS COASTAL BEND AND RIO GRANDE PLAINS

CITY           SKY/WX    TMP DP  RH WIND       PRES   REMARKS
VICTORIA       CLOUDY    53  48  83 N9        30.23R
*BEEVILLE      CLOUDY    52  49  89 N12G17    30.21S
ROCKPORT       CLOUDY    53  48  83 N13       30.21R
*PORT ARANSAS  CLOUDY    52  49  91 N12       30.21R FOG
*PORT LAVACA   CLOUDY    52  49  90 N13       30.22R
*INGLESIDE     CLOUDY    52  47  83 N13       30.20R
CORPUS CHRISTI CLOUDY    53  48  83 N10       30.22R
CORPUS NAS     CLOUDY    53  51  93 N13       30.21R
*ROBSTOWN      CLOUDY    53  50  92 N12       30.23R
ALICE          CLOUDY    53  48  83 N8        30.22R
KINGSVILLE NAS CLOUDY    53  51  93 N8        30.23R
COTULLA        CLOUDY    52  45  77 NE10      30.24R
LAREDO         CLOUDY    52  46  82 E6        30.26R
$$

TXZ248>255-201700-
DEEP SOUTH TEXAS

CITY           SKY/WX    TMP DP  RH WIND       PRES   REMARKS
BROWNSVILLE    CLOUDY    59  55  87 N10       30.19R
PORT ISABEL    CLOUDY    59  55  87 NW13      30.19R
*SOUTH PADRE   CLOUDY    63  57  82 E10       30.17R
HARLINGEN        N/A     57  55  93 N13       30.20R
*HEBBRONVILLE  CLOUDY    50  48  93 N6        30.23R FOG     WCI  48
MCALLEN        CLOUDY    56  54  93 N8        30.23R FOG
*WESLACO       CLOUDY    56  52  86 N7        30.21R
FALFURRIAS     CLOUDY    52  49  90 NE6       30.22S
EDINBURG       CLOUDY    56  53  88 N7        30.23R FOG
*ZAPATA        CLOUDY    54  53  96 NE6       30.22R
$$

TXZ213>215-236>238-242>244-246-247-251-254-255-201700-
CMAN STATIONS

STATION/POSITION TIME  TEMP    WIND        PRES    WAVE
                       AIR SEA DIR/SP/G            HT/PER
                 (UTC) (F)     (DEG/KT/KT) (MB)    (FT/S)
SABINE PASS      1500   51 59   20/ 11/ 14 1022.3
SEA RIM ST PARK  1500   50      20/  8/ 10 1022.9
NORTH JETTY/GLS  1500   51 61   50/ 12/ 14   N/A
EAGLE POINT      1500   53 60   30/  6/  9 1022.9
MORGANS POINT    1500   51      10/  5/  7 1022.9
MISSION/ARANSAS  1500   51     340/ 16     1023.0
PORT O`CONNOR    1500          340/ 12/ 16   N/A
PORT ARANSAS     1500   52 63  340/ 12/ 14 1022.7
MALAQUITE BEACH  1500   53 66  350/ 12/ 13 1022.1
BAFFIN BAY       1500   52     350/ 11/ 13 1022.9
PORT ISABEL      1500   60 68  350/ 13/ 16 1021.4
$$

GMZ080-GMZ150>470-201700-
OFFSHORE BUOY REPORTS

STATION/POSITION TIME  TEMP    WIND        PRES    WAVE
                       AIR SEA DIR/SP/G            HT/PER
                 (UTC) (F)     (DEG/KT/KT) (MB)    (FT/S)
20 E GALVESTON   1600   54 64   20/ 16/ 19 1021.5    3/ 6
90 E PT ARANSAS  1600   60 72   20/ 17/ 21 1021.3    6/ 7
35 NE PT MANSFLD 1500   63 73   10/ 19/ 23 1020.2    6/ 7
200 E PT ISABEL  1500   70 73   10/ 17/ 21 1017.7    5/ 6
$$